{"data":{"norad_id":46826,"epoch":"2026-05-24T13:42:57.718368Z","epoch_age_seconds":122552,"freshness":"FRESH","line1":"1 46826U 20078A   26144.57150137 -.00000006  00000+0  00000+0 0  9994","line2":"2 46826  53.9826 211.7364 0072472 206.5980 323.6091  2.00564895 41038","mean_motion":2.00564895,"eccentricity":0.0072472,"inclination_deg":53.9826,"raan_deg":211.7364,"arg_perigee_deg":206.598,"mean_anomaly_deg":323.6091,"bstar":0,"rev_number":4103,"period_min":717.97210573665,"perigee_km":19989.609514623,"apogee_km":20374.584168012,"semimajor_km":26560.233841317,"source":"CELESTRAK","updated_at":"2026-05-25T13:38:23.767562Z"}}